DW5595 Weather Reports


time (UTC)temp
C
wind
direction
speed
KPH
gust
KPH
rain 1hr
cm
rain 24hr
cm
rain mn
cm
humidity
%
barometer
mb
20260902150012 30 5 1.6 4.8 0.00 0.00 0.00 68 1020.5
20260902144525 29 30 0.0 6.4 0.00 0.00 0.00 69 1020.6
20260902143011 28 340 3.2 8.0 0.00 0.00 0.00 74 1020.5
20260902141518 28 317 3.2 6.4 0.00 0.00 0.00 75 1020.5
20260902140018 27 10 0.0 3.2 0.00 0.00 0.00 78 1020.4
20260902134514 27 352 3.2 6.4 0.00 0.00 0.00 79 1020.4
20260902133017 26 316 0.0 3.2 0.00 0.00 0.00 82 1020.3
20260902131538 25 141 0.0 0.0 0.00 0.00 0.00 88 1020.3
20260902130019 23 338 0.0 3.2 0.00 0.00 0.00 93 1020.2
20260902124519 22 149 0.0 0.0 0.00 0.00 0.00 96 1020.4
20260902123037 21 149 0.0 0.0 0.00 0.00 0.00 96 1020.3
20260902121523 21 149 0.0 0.0 0.00 0.00 0.00 97 1020.3
20260902120021 20 149 0.0 0.0 0.00 0.00 0.00 97 1020.1
20260902114521 20 149 0.0 0.0 0.00 0.00 0.00 96 1020.0
20260902113023 20 149 0.0 0.0 0.00 0.00 0.00 96 1019.9
20260902111523 20 149 0.0 0.0 0.00 0.00 0.00 96 1019.8
20260902110025 20 149 0.0 0.0 0.00 0.00 0.00 96 1019.8
20260902104521 20 149 0.0 1.6 0.00 0.00 0.00 96 1019.7
20260902103013 20 161 0.0 0.0 0.00 0.00 0.00 96 1019.7
20260902101513 20 161 0.0 0.0 0.00 0.00 0.00 96 1019.7
20260902100012 20 155 0.0 0.0 0.00 0.00 0.00 96 1019.5
20260902094510 20 155 0.0 0.0 0.00 0.00 0.00 96 1019.4
20260902093009 20 155 0.0 0.0 0.00 0.00 0.00 96 1019.3
20260902091512 20 155 0.0 0.0 0.00 0.00 0.00 96 1019.3
20260902090026 21 155 0.0 0.0 0.00 0.00 0.00 96 1019.1
20260902084514 21 155 0.0 0.0 0.00 0.00 0.00 96 1019.2
20260902083015 21 155 0.0 0.0 0.00 0.00 0.00 96 1019.1
20260902081524 21 155 0.0 0.0 0.00 0.00 0.00 95 1019.0
20260902080013 21 155 0.0 0.0 0.00 0.00 0.00 95 1018.9
20260902074508 21 155 0.0 0.0 0.00 0.00 0.00 95 1018.9
20260902073009 21 155 0.0 0.0 0.00 0.00 0.00 95 1018.8
20260902071536 21 155 0.0 0.0 0.00 0.00 0.00 95 1019.1
20260902070015 21 155 0.0 0.0 0.00 0.00 0.00 95 1018.9
20260902064519 21 155 0.0 0.0 0.00 0.00 0.00 95 1018.9
20260902063026 21 155 0.0 0.0 0.00 0.00 0.00 95 1019.0
20260902061518 21 155 0.0 0.0 0.00 0.00 0.00 95 1019.0
20260902060021 21 155 1.6 3.2 0.00 0.00 0.00 95 1019.0
20260902053022 22 167 0.0 0.0 0.00 0.00 0.00 95 1019.1
20260902051529 22 167 0.0 0.0 0.00 0.00 0.00 95 1018.9
20260902050030 22 167 0.0 0.0 0.00 0.00 0.00 95 1019.0
20260902044526 22 167 0.0 0.0 0.00 0.00 0.00 95 1018.9
20260902043018 22 167 0.0 0.0 0.00 0.00 0.00 95 1018.9
20260902041514 22 167 0.0 0.0 0.00 0.00 0.00 95 1019.1
20260902040023 22 167 0.0 0.0 0.00 0.00 0.00 95 1018.9
20260902034524 22 167 0.0 0.0 0.00 0.00 0.00 94 1018.8
20260902033024 22 167 0.0 4.8 0.00 0.00 0.00 94 1018.9
20260902031526 22 167 0.0 0.0 0.00 0.00 0.00 94 1018.9
20260902030024 23 167 0.0 0.0 0.00 0.00 0.00 93 1018.9
20260902024516 23 167 0.0 0.0 0.00 0.00 0.00 93 1018.8
20260902023018 23 167 0.0 0.0 0.00 0.00 0.00 93 1018.8
20260902021527 23 167 0.0 0.0 0.00 0.00 0.00 92 1018.7
20260902020023 23 167 0.0 0.0 0.00 0.00 0.00 92 1018.7
20260902014533 24 167 0.0 0.0 0.00 0.00 0.00 92 1018.5
20260902013033 24 167 0.0 0.0 0.00 0.00 0.00 91 1018.3
20260902011527 25 167 0.0 0.0 0.00 0.00 0.00 90 1018.4
20260902010038 25 167 0.0 0.0 0.00 0.00 0.00 89 1018.3
20260902004527 25 167 0.0 0.0 0.00 0.00 0.00 89 1018.2
20260902003031 26 167 0.0 0.0 0.00 0.00 0.00 87 1018.0
20260902001527 26 167 0.0 0.0 0.00 0.00 0.00 85 1018.0
20260902000038 27 167 0.0 0.0 0.00 0.00 0.00 83 1018.0
20260901234527 27 167 0.0 0.0 0.00 0.00 0.00 81 1018.0
20260901233026 28 167 0.0 1.6 0.00 0.00 0.00 80 1018.0
20260901231523 28 163 0.0 0.0 0.00 0.00 0.00 76 1018.0
20260901230033 29 163 0.0 0.0 0.00 0.00 0.00 77 1018.2
20260901224540 29 163 0.0 0.0 0.00 0.00 0.00 75 1018.0
20260901223043 29 163 0.0 3.2 0.00 0.00 0.00 73 1018.0
20260901221528 29 170 0.0 0.0 0.00 0.00 0.00 71 1018.0
20260901220031 30 170 0.0 0.0 0.00 0.00 0.00 66 1018.2
20260901214531 31 170 0.0 0.0 0.00 0.00 0.00 61 1018.1
20260901213039 32 170 0.0 0.0 0.00 0.00 0.00 59 1018.0
20260901211526 32 161 1.6 3.2 0.00 0.00 0.00 55 1017.9
20260901210024 32 150 0.0 3.2 0.00 0.00 0.00 54 1017.9
20260901204515 32 119 0.0 4.8 0.00 0.00 0.00 51 1018.1
20260901203029 33 149 0.0 3.2 0.00 0.00 0.00 55 1018.2
20260901201529 33 5 0.0 4.8 0.00 0.00 0.00 53 1018.3
20260901200041 33 337 0.0 4.8 0.00 0.00 0.00 51 1018.5
20260901194535 33 286 0.0 8.0 0.00 0.00 0.00 47 1018.6
20260901193024 33 352 3.2 9.7 0.00 0.00 0.00 50 1018.7
20260901191527 33 24 0.0 8.0 0.00 0.00 0.00 49 1018.9
20260901190014 33 360 6.4 8.0 0.00 0.00 0.00 47 1019.0
20260901184529 33 352 3.2 8.0 0.00 0.00 0.00 52 1019.1
20260901183030 33 174 0.0 8.0 0.00 0.00 0.00 55 1019.2
20260901181536 33 327 3.2 6.4 0.00 0.00 0.00 51 1019.3
20260901180032 32 352 3.2 9.7 0.00 0.00 0.00 48 1019.4
20260901174524 32 9 1.6 11.3 0.00 0.00 0.00 55 1019.4
20260901173031 32 347 3.2 11.3 0.00 0.00 0.00 56 1019.5
20260901171513 32 36 0.0 9.7 0.00 0.00 0.00 56 1019.7
20260901170101 32 10 0.0 6.4 0.00 0.00 0.00 55 1019.8
20260901164533 31 16 1.6 6.4 0.00 0.00 0.00 59 1019.9
20260901163031 31 317 4.8 9.7 0.00 0.00 0.00 64 1020.2
20260901161527 31 352 1.6 6.4 0.00 0.00 0.00 64 1020.3
20260901160037 31 306 1.6 12.9 0.00 0.00 0.00 65 1020.6
20260901154533 30 338 3.2 11.3 0.00 0.00 0.00 66 1020.6
20260901153015 30 313 1.6 4.8 0.00 0.00 0.00 67 1020.8
20260901151533 29 229 0.0 3.2 0.00 0.00 0.00 66 1020.8